Time_in_sec,Mx,My,Mz
1312470943.64844513,-0.65923715,-0.28603113,-0.72554415
1312470943.68845344,-0.66034836,-0.28451172,-0.72333503
1312470943.73749447,-0.65935737,-0.28616029,-0.72528130
1312470943.78741598,-0.65897828,-0.28399226,-0.72554451
1312470943.83673072,-0.66026008,-0.28562608,-0.72654700
1312470943.88728189,-0.66102511,-0.28499082,-0.72552079
1312470943.93929696,-0.65871030,-0.28707731,-0.72375870
1312470943.98732281,-0.66056752,-0.28449449,-0.72469175
1312470944.03543377,-0.66034555,-0.28499728,-0.72561592
1312470944.09642339,-0.66048318,-0.28703463,-0.72587734
1312470944.13629770,-0.65988660,-0.28146747,-0.72212166
1312470944.18836260,-0.66139489,-0.28626856,-0.72499502
1312470944.23633003,-0.65897840,-0.28603122,-0.72579801
1312470944.28727841,-0.66070503,-0.28347340,-0.72457296
1312470944.33530116,-0.65977478,-0.28541467,-0.72302634
1312470944.38524461,-0.66015404,-0.28666589,-0.72492033
1312470944.43628120,-0.65838420,-0.28632566,-0.72280478
1312470944.48522234,-0.65988910,-0.28539279,-0.72491461
1312470944.53634882,-0.65954256,-0.28515479,-0.72368681
1312470944.58421588,-0.65994585,-0.28619599,-0.72141761
1312470944.63530827,-0.65933383,-0.28501785,-0.72475094
1312470944.68727779,-0.65959132,-0.28504276,-0.72221214
1312470944.73543882,-0.65750802,-0.28466362,-0.72397619
1312470944.78450155,-0.66085488,-0.28499869,-0.72497332
1312470944.83558154,-0.65769964,-0.28401449,-0.72479850
1312470944.88444901,-0.65868372,-0.28631777,-0.72322530
1312470944.93572736,-0.66068786,-0.28666261,-0.72468239
1312470944.98841596,-0.66012621,-0.28593132,-0.72210199
1312470945.03588223,-0.65795839,-0.28401440,-0.72454464
1312470945.08728623,-0.66033626,-0.28706276,-0.72344953
1312470945.13640523,-0.65960068,-0.28797200,-0.72272825
1312470945.18444920,-0.65977198,-0.28590021,-0.72530723
1312470945.23639059,-0.66033149,-0.28484780,-0.72763216
1312470945.28842497,-0.65816635,-0.28438163,-0.72576350
1312470945.33540535,-0.66159958,-0.28589654,-0.72380006
1312470945.38843465,-0.66034746,-0.28667831,-0.72358745
1312470945.43541527,-0.65851378,-0.28347251,-0.72686553
1312470945.48728180,-0.66050756,-0.28499097,-0.72602850
1312470945.53547883,-0.65951836,-0.28628162,-0.72569287
1312470945.58741045,-0.66040868,-0.28615683,-0.72453570
1312470945.63540530,-0.65952438,-0.28449637,-0.72557223
1312470945.68742323,-0.65992993,-0.28640446,-0.72571576
1312470945.73548245,-0.65920854,-0.28552687,-0.72500867
1312470945.78844452,-0.66049224,-0.28486648,-0.72575974
1312470945.83630109,-0.65807581,-0.28564858,-0.72668952
1312470945.88729000,-0.65937060,-0.28552058,-0.72542131
1312470945.93540382,-0.65960187,-0.28692755,-0.72488648
1312470945.98844552,-0.66147143,-0.28587162,-0.72621197
1312470946.03533435,-0.65944397,-0.28448701,-0.72650844
1312470946.08729672,-0.65941632,-0.28579143,-0.72394353
1312470946.13535142,-0.66022336,-0.28614286,-0.72600347
1312470946.18729353,-0.66052902,-0.28536919,-0.72643012
1312470946.23630118,-0.65923226,-0.28575248,-0.72769624
1312470946.28730488,-0.66053438,-0.28585318,-0.72884589
1312470946.33531189,-0.66025692,-0.28794527,-0.72451347
1312470946.38741636,-0.65988529,-0.28702545,-0.72732127
1312470946.43531251,-0.65912622,-0.28383648,-0.72797334
1312470946.48740816,-0.66019398,-0.28586888,-0.72775096
1312470946.53531933,-0.65866369,-0.28499779,-0.72726589
1312470946.58732271,-0.66054046,-0.28508738,-0.72885197
1312470946.63674235,-0.65963173,-0.28445107,-0.72961062
1312470946.68728399,-0.65866172,-0.28627253,-0.72739065
1312470946.73672891,-0.65937901,-0.28664115,-0.72796685
1312470946.78451824,-0.65962261,-0.28559974,-0.72960150
1312470946.83638239,-0.65822780,-0.28498229,-0.72912240
1312470946.88438225,-0.66081971,-0.28661263,-0.72912544
1312470946.93597150,-0.66026545,-0.28611007,-0.72896278
1312470946.98730206,-0.65912640,-0.28689492,-0.72835356
1312470947.03666067,-0.65866178,-0.28433621,-0.72942108
1312470947.08727670,-0.66051811,-0.28687578,-0.72870284
1312470947.13548613,-0.65976614,-0.28676867,-0.72758508
1312470947.18436623,-0.66097659,-0.28622502,-0.72940618
1312470947.23673129,-0.65960544,-0.28481370,-0.73148793
1312470947.28439116,-0.65879411,-0.28588960,-0.72726673
1312470947.33665514,-0.66037053,-0.28621739,-0.73071522
1312470947.38512492,-0.66288376,-0.28646097,-0.72924578
1312470947.43668628,-0.65797698,-0.28487816,-0.72722715
1312470947.48728061,-0.66075552,-0.28456119,-0.73007792
1312470947.53671432,-0.66159713,-0.28556794,-0.73052216
1312470947.58436847,-0.66054672,-0.28738004,-0.72923833
1312470947.63664484,-0.65792716,-0.28409836,-0.72857410
1312470947.68443775,-0.66099495,-0.28596663,-0.72967798
1312470947.73711300,-0.65763509,-0.28637394,-0.73082483
1312470947.78434587,-0.66048664,-0.28583759,-0.73032159
1312470947.83640742,-0.66067791,-0.28406632,-0.72873318
1312470947.88728189,-0.66074413,-0.28586248,-0.72778279
1312470947.94338870,-0.66168970,-0.28802097,-0.72782117
1312470947.98443985,-0.66034901,-0.28481969,-0.73018688
1312470948.03635287,-0.65976608,-0.28574920,-0.72745836
1312470948.08442187,-0.66024816,-0.28726032,-0.72881877
1312470948.13629603,-0.66097862,-0.28596973,-0.72940826
1312470948.18444705,-0.66006035,-0.28627679,-0.72558981
1312470948.23530746,-0.65901756,-0.28546450,-0.73091149
1312470948.28728437,-0.65995282,-0.28584087,-0.73055953
1312470948.33531499,-0.66121197,-0.28814095,-0.72900224
1312470948.38443780,-0.66068721,-0.28597608,-0.72912258
1312470948.43528581,-0.66016555,-0.28444779,-0.72937274
1312470948.48843241,-0.66054970,-0.28597769,-0.72911459
1312470948.53629541,-0.66065454,-0.28598234,-0.72858304
1312470948.58843350,-0.66041005,-0.28521505,-0.72897786
1312470948.63540316,-0.66003102,-0.28406650,-0.72936779
1312470948.68726397,-0.66027570,-0.28687274,-0.72922647
1312470948.73542380,-0.65987730,-0.28611019,-0.72934359
1312470948.78843594,-0.66152978,-0.28583571,-0.72944111
1312470948.83541393,-0.65879232,-0.28624752,-0.72954869
1312470948.88843203,-0.66014308,-0.28419721,-0.72897011
1312470948.93541145,-0.66045892,-0.28714198,-0.72775668
1312470948.98733497,-0.66038257,-0.28662214,-0.72869694
1312470949.03643036,-0.66078615,-0.28481022,-0.73061538
1312470949.08727360,-0.66099989,-0.28726476,-0.72765261
1312470949.13638449,-0.65996569,-0.28703478,-0.72638506
1312470949.18730378,-0.66004115,-0.28574598,-0.72747427
1312470949.23531246,-0.66003621,-0.28546733,-0.72962636
1312470949.28731537,-0.66061693,-0.28764620,-0.72816521
1312470949.33676481,-0.66050172,-0.28585944,-0.72830635
1312470949.38742733,-0.66223472,-0.28763324,-0.72772115
1312470949.43548965,-0.65812987,-0.28500107,-0.72750384
1312470949.48729038,-0.65886760,-0.28587553,-0.72848064
1312470949.53532267,-0.66029185,-0.28778642,-0.72733903
1312470949.58741975,-0.65923631,-0.28524193,-0.72770035
1312470949.63639712,-0.65892977,-0.28522643,-0.72942990
1312470949.68741632,-0.66028368,-0.28778800,-0.72720414
1312470949.73674154,-0.65997195,-0.28535220,-0.72854835
1312470949.78730607,-0.66051191,-0.28560260,-0.72844326
1312470949.83672142,-0.65867591,-0.28448570,-0.72740483
1312470949.88728952,-0.66095072,-0.28717148,-0.72455937
1312470949.93931174,-0.65996474,-0.28818190,-0.72651076
1312470949.98734188,-0.66047031,-0.28584072,-0.73005182
1312470950.03534198,-0.65903366,-0.28535873,-0.72889733
1312470950.08732605,-0.66031730,-0.28663462,-0.72761792
1312470950.13531852,-0.66053939,-0.28817081,-0.72694725
1312470950.18743873,-0.66041201,-0.28689611,-0.72694945
1312470950.23530698,-0.65872490,-0.28549579,-0.72834086
1312470950.28728247,-0.66058719,-0.28523061,-0.72737527
1312470950.33536100,-0.65947652,-0.28641707,-0.72501749
1312470950.38740587,-0.65957355,-0.28754544,-0.72676176
1312470950.43527985,-0.65960729,-0.28547525,-0.72933275
1312470950.48741341,-0.66016334,-0.28561988,-0.72721344
1312470950.53538227,-0.66044152,-0.28625324,-0.72735918
1312470950.58728838,-0.65945840,-0.28677812,-0.72702962
1312470950.63531566,-0.65940452,-0.28650883,-0.72837251
1312470950.68428993,-0.65943474,-0.28757200,-0.72446883
1312470950.73531485,-0.66054028,-0.28600422,-0.72669476
1312470950.78734398,-0.65861678,-0.28577137,-0.72658545
1312470950.83527803,-0.66118836,-0.28597903,-0.72834510
1312470950.88729239,-0.66002697,-0.28753281,-0.72746003
1312470950.93638539,-0.66022551,-0.28792655,-0.72625893
1312470950.98733568,-0.65988117,-0.28651649,-0.72719043
1312470951.03534222,-0.65989542,-0.28574914,-0.72733140
1312470951.08427453,-0.66073883,-0.28537849,-0.72536695
1312470951.13535285,-0.66009724,-0.28881845,-0.72651362
1312470951.18731046,-0.65871763,-0.28628656,-0.72604978
1312470951.23532367,-0.65989238,-0.28613204,-0.72732836
1312470951.28733444,-0.65969676,-0.28729171,-0.72650200
1312470951.33532715,-0.65912205,-0.28628331,-0.72593880
1312470951.38734388,-0.65841401,-0.28680497,-0.72562516
1312470951.43530250,-0.66009104,-0.28754526,-0.72625405
1312470951.48728800,-0.65971196,-0.28537723,-0.72651726
1312470951.53540921,-0.65846395,-0.28564847,-0.72630870
1312470951.58443689,-0.65891111,-0.28731847,-0.72484368
1312470951.63660908,-0.66044050,-0.28638089,-0.72735816
1312470951.68443584,-0.66059518,-0.28614587,-0.72535294
1312470951.73541474,-0.66041625,-0.28648823,-0.72923750
1312470951.78732181,-0.66090906,-0.28639010,-0.72604120
1312470951.83540583,-0.65884709,-0.28435022,-0.72795337
1312470951.88727880,-0.66063303,-0.28754044,-0.72615099
1312470951.93687582,-0.65967739,-0.28767771,-0.72622919
1312470951.98743272,-0.65945017,-0.28576019,-0.72676802
1312470952.03644633,-0.65765792,-0.28618890,-0.72437656
1312470952.08734822,-0.65872961,-0.28567180,-0.72390479
1312470952.13566589,-0.66068608,-0.28804001,-0.72709107
1312470952.18843341,-0.65958452,-0.28705832,-0.72461569
1312470952.23540258,-0.65896124,-0.28524515,-0.72768444
1312470952.28728271,-0.66015601,-0.28539115,-0.72479564
1312470952.33637929,-0.65901804,-0.28706783,-0.72431415
1312470952.38741755,-0.65977204,-0.28691971,-0.72543395
1312470952.43648648,-0.65898663,-0.28409335,-0.72796333
1312470952.48741841,-0.65988106,-0.28447753,-0.72693694
1312470952.53541183,-0.66032743,-0.28535831,-0.72762811
1312470952.58742523,-0.65947270,-0.28703025,-0.72729737
1312470952.63674259,-0.65973574,-0.28662232,-0.72933155
1312470952.68729234,-0.66039157,-0.28639027,-0.72654885
1312470952.73636436,-0.65799439,-0.28576690,-0.72762465
1312470952.78742242,-0.65933096,-0.28550342,-0.72703189
1312470952.84455967,-0.65869641,-0.28601101,-0.72793216
1312470952.88732886,-0.65958959,-0.28244489,-0.72639781
1312470952.93544197,-0.65930361,-0.28792995,-0.72687769
1312470952.98443794,-0.65823478,-0.28602520,-0.72709906
1312470953.03933716,-0.65975708,-0.28598103,-0.72960639
1312470953.08730865,-0.65945339,-0.28843576,-0.72715133
1312470953.13537502,-0.66044873,-0.28739882,-0.72761977
1312470953.18742919,-0.66024017,-0.28736454,-0.73096788
1312470953.23548913,-0.65807301,-0.28613415,-0.72897041
1312470953.28744197,-0.65820235,-0.28613412,-0.72884345
1312470953.33547473,-0.66070443,-0.28778163,-0.72736287
1312470953.38440442,-0.66000068,-0.28789541,-0.72933728
1312470953.43629742,-0.65737933,-0.28497165,-0.73095500
1312470953.48728490,-0.66059351,-0.28558698,-0.72979206
1312470953.53532743,-0.65977854,-0.28635925,-0.73000801
1312470953.58731222,-0.65772659,-0.28793511,-0.72799611
1312470953.63531709,-0.65739876,-0.28560510,-0.73135453
1312470953.69623899,-0.66083407,-0.28788424,-0.72951990
1312470953.73631573,-0.65956634,-0.28344411,-0.72840488
1312470953.78734493,-0.65966958,-0.28584564,-0.73040873
1312470953.84442854,-0.65950632,-0.28587690,-0.72771114
1312470953.88728762,-0.65941048,-0.28370407,-0.72812515
1312470953.93641996,-0.65951979,-0.28635931,-0.73026180
1312470953.99642825,-0.66052544,-0.28710452,-0.73112071
1312470954.03630805,-0.65734524,-0.28194442,-0.72775030
1312470954.08734465,-0.65948313,-0.28789559,-0.72984499
1312470954.14463830,-0.65903485,-0.28828952,-0.72927856
1312470954.18445158,-0.65888065,-0.28217736,-0.72824037
1312470954.23536396,-0.65763295,-0.28459024,-0.73056930
1312470954.29633975,-0.65942693,-0.28573993,-0.72864836
1312470954.33628368,-0.66074181,-0.28397611,-0.72524327
1312470954.38429284,-0.65994751,-0.28637636,-0.72827047
1312470954.44729495,-0.65890241,-0.28469720,-0.73117942
1312470954.48843527,-0.65845072,-0.28333241,-0.72807252
1312470954.53546071,-0.65776545,-0.28624627,-0.73069894
1312470954.59633803,-0.66096234,-0.28699234,-0.72926521
1312470954.63629603,-0.66141027,-0.28343728,-0.72716749
1312470954.68729758,-0.65980685,-0.28574136,-0.72813272
1312470954.74443507,-0.65932208,-0.28675476,-0.72930670
1312470954.78452611,-0.65684694,-0.28247538,-0.72637355
1312470954.83540487,-0.65851414,-0.28561413,-0.72940296
1312470954.89644074,-0.66066790,-0.28738159,-0.72897649
1312470954.93675447,-0.66020095,-0.28293651,-0.72750455
1312470954.98443794,-0.65987420,-0.28547361,-0.72921377
1312470955.04729700,-0.65898895,-0.28496024,-0.73037606
1312470955.08430910,-0.65966082,-0.28360289,-0.72545242
1312470955.13628030,-0.65821964,-0.28895915,-0.72721052
1312470955.19643426,-0.66046220,-0.28686175,-0.73004371
1312470955.23630500,-0.66049778,-0.28185639,-0.72094446
1312470955.28844523,-0.66115624,-0.28463286,-0.72311199
1312470955.34462714,-0.66156167,-0.28745776,-0.72109824
1312470955.38726974,-0.65952563,-0.28189415,-0.71846890
1312470955.43540478,-0.65922862,-0.28389108,-0.72287184
1312470955.49629617,-0.66002834,-0.28299430,-0.72238714
1312470955.53643703,-0.66060251,-0.28277788,-0.71825570
1312470955.58729482,-0.65990394,-0.28531197,-0.72061545
1312470955.64444542,-0.65951908,-0.28503186,-0.72328323
1312470955.68741059,-0.65990669,-0.28278744,-0.71808106
1312470955.73541522,-0.65810281,-0.28699198,-0.72049880
1312470955.79541278,-0.65942621,-0.28441244,-0.72166973
1312470955.84446239,-0.66034281,-0.28392506,-0.71863526
1312470955.89529085,-0.65949601,-0.28151751,-0.71793246
1312470955.94847012,-0.66001171,-0.28187528,-0.71970671
1312470955.99643898,-0.65877575,-0.28255126,-0.71747994
1312470956.04433417,-0.65931892,-0.28150195,-0.71953511
1312470956.09642196,-0.66052729,-0.28416935,-0.71945047
1312470956.14441395,-0.66014093,-0.28279206,-0.71742254
1312470956.19642043,-0.65880144,-0.28252161,-0.72016954
1312470956.24431467,-0.66094905,-0.28301585,-0.71948349
1312470956.29530644,-0.65899366,-0.28255898,-0.71655166
1312470956.34841657,-0.65992713,-0.28329328,-0.71848160
1312470956.39641714,-0.65862000,-0.28189442,-0.71935737
1312470956.44431067,-0.66069430,-0.28546119,-0.71783769
1312470956.49634409,-0.65895730,-0.28124213,-0.72032255
1312470956.54435396,-0.66033965,-0.28226900,-0.71837872
1312470956.59634376,-0.66022867,-0.28303012,-0.71890420
1312470956.64434958,-0.66005957,-0.28392982,-0.71848446
1312470956.69635534,-0.66047215,-0.28290555,-0.71838158
1312470956.74433899,-0.65911627,-0.28161871,-0.72073209
1312470956.79634356,-0.65850496,-0.28214660,-0.71975201
1312470956.84432244,-0.66045487,-0.28405577,-0.71823758
1312470956.89571524,-0.66150647,-0.28517449,-0.71990263
1312470956.94443703,-0.66011852,-0.28356096,-0.71714669
1312470956.99602127,-0.65920901,-0.28315493,-0.72018832
1312470957.04729247,-0.65957761,-0.28048238,-0.71915454
1312470957.09615636,-0.66036737,-0.28493986,-0.71916664
1312470957.14823675,-0.66001689,-0.28327608,-0.71996528
1312470957.19647074,-0.66009134,-0.28211489,-0.72105348
1312470957.24435854,-0.66035402,-0.28354061,-0.71877319
1312470957.29632545,-0.66021556,-0.28173354,-0.72079468
1312470957.34443212,-0.66172123,-0.28352615,-0.71871787
1312470957.39643335,-0.65880346,-0.28226632,-0.72017157
1312470957.44851780,-0.66125160,-0.28558084,-0.71800333
1312470957.49630260,-0.65977639,-0.28097880,-0.72023743
1312470957.54443645,-0.65883797,-0.28190216,-0.71842915
1312470957.59642816,-0.66059762,-0.28249919,-0.72040784
1312470957.64740157,-0.65999645,-0.28277025,-0.71956468
1312470957.69643617,-0.65944326,-0.28611532,-0.71762609
1312470957.74442697,-0.66044170,-0.28173971,-0.72000134
1312470957.79644799,-0.65838271,-0.28227270,-0.72001284
1312470957.84445119,-0.65905392,-0.28318465,-0.71762562
1312470957.89632130,-0.65996385,-0.28379598,-0.71915191
1312470957.94842649,-0.66055685,-0.28352651,-0.71986020
1312470957.99643564,-0.65745240,-0.28217500,-0.71821266
1312470958.03630638,-0.65911615,-0.28253555,-0.71857488
1312470958.09644651,-0.66038084,-0.28542230,-0.72171730
1312470958.14429426,-0.65858012,-0.28371090,-0.71665353
1312470958.19642329,-0.66023594,-0.28121990,-0.72106850
1312470958.24843669,-0.65966117,-0.28214779,-0.71847486
1312470958.29629207,-0.65841752,-0.28405014,-0.72080785
1312470958.34844518,-0.65757650,-0.28271046,-0.71579671
1312470958.39644575,-0.65790367,-0.28037867,-0.71865541
1312470958.44444728,-0.66169471,-0.28378609,-0.71831119
1312470958.49643612,-0.65698487,-0.28203815,-0.71953064
1312470958.54731703,-0.66014922,-0.28085420,-0.71958792
1312470958.59643722,-0.65913248,-0.28355190,-0.71897137
1312470958.64463449,-0.65917820,-0.28280327,-0.71736687
1312470958.69529867,-0.65912032,-0.28406399,-0.71883243
1312470958.74750900,-0.65838963,-0.28229609,-0.71786273
1312470958.79642510,-0.65861899,-0.28202206,-0.71935636
1312470958.84446239,-0.65953189,-0.28418681,-0.71885526
1312470958.89533806,-0.65775603,-0.28267607,-0.71876407
1312470958.94732428,-0.66038251,-0.28200591,-0.71905518
1312470958.99637532,-0.65931189,-0.28341484,-0.71965474
1312470959.04670334,-0.65792316,-0.28203163,-0.71918172
1312470959.09538817,-0.65921998,-0.28266782,-0.71804231
1312470959.14842367,-0.65984064,-0.28404972,-0.71941167
1312470959.19556975,-0.65971720,-0.28124502,-0.71929127
1312470959.24731255,-0.65915185,-0.28316587,-0.71924418
1312470959.29533076,-0.65888393,-0.28329515,-0.71936214
1312470959.34735107,-0.65999627,-0.28266758,-0.71728075
1312470959.39635444,-0.65935755,-0.28266621,-0.71805024
1312470959.44429922,-0.65964800,-0.28380701,-0.71846163
1312470959.49630094,-0.65917307,-0.28242195,-0.71723503
1312470959.54728770,-0.65876067,-0.28252941,-0.71949512
1312470959.59531474,-0.65948611,-0.28289646,-0.72020626
1312470959.64728570,-0.65959185,-0.28369030,-0.71751851
1312470959.69642663,-0.65834606,-0.28380895,-0.71959597
1312470959.74522614,-0.65999854,-0.28353447,-0.71969348
1312470959.79633522,-0.65858740,-0.28292015,-0.71894461
1312470959.84404159,-0.66043550,-0.28444180,-0.71796477
1312470959.89637208,-0.65872902,-0.28240803,-0.71895665
1312470959.94732761,-0.65977120,-0.28355327,-0.71820188
1312470959.99530864,-0.65857631,-0.28136832,-0.72083718
1312470960.04909253,-0.65890944,-0.28316283,-0.71976775
1312470960.09539294,-0.66065574,-0.28531641,-0.71944928
1312470960.14505744,-0.65791482,-0.28295001,-0.71688962
1312470960.19541907,-0.65739757,-0.28305283,-0.71968126
1312470960.24729300,-0.66012782,-0.28149548,-0.71931309
1312470960.29568839,-0.65801388,-0.28382310,-0.71863592
1312470960.34729481,-0.65874034,-0.28406253,-0.71934807
1312470960.39592981,-0.65818805,-0.28228524,-0.71906072
1312470960.44442368,-0.65793741,-0.28523955,-0.71754569
1312470960.49635315,-0.65955627,-0.28214315,-0.71900642
1312470960.54728508,-0.66022372,-0.28173196,-0.72092956
1312470960.59643841,-0.65774792,-0.28369710,-0.71875590
1312470960.64730048,-0.65818197,-0.28305101,-0.71905464
1312470960.69633222,-0.65886557,-0.28355354,-0.71909034
1312470960.74443579,-0.65840697,-0.28216535,-0.71813351
1312470960.79643893,-0.65807706,-0.28304636,-0.71958619
1312470960.84443641,-0.65979165,-0.28405911,-0.71860242
1312470960.89636350,-0.65980595,-0.28431123,-0.71887016
1312470960.94442606,-0.65871787,-0.28381196,-0.71894544
1312470960.99637508,-0.65810347,-0.28074747,-0.71973938
1312470961.04744697,-0.65906227,-0.28226626,-0.71991771
1312470961.09632754,-0.65875560,-0.28316757,-0.71949005
1312470961.14837170,-0.66038662,-0.28251487,-0.71918595
1312470961.19643450,-0.65871781,-0.28279248,-0.71881872
1312470961.24443150,-0.65941775,-0.28329188,-0.71912420
1312470961.29643464,-0.65805560,-0.28266817,-0.71918458
1312470961.34731555,-0.65953982,-0.28408259,-0.71670616
1312470961.39644814,-0.65760249,-0.28380293,-0.72089702
1312470961.44444609,-0.65965003,-0.28355175,-0.71846366
1312470961.49634027,-0.65953487,-0.28278443,-0.71873158
1312470961.54844689,-0.65957779,-0.28354084,-0.71953475
1312470961.59645844,-0.65747911,-0.28201771,-0.72090334
1312470961.64451504,-0.65884829,-0.28470379,-0.71894628
1312470961.69631100,-0.65823811,-0.28418720,-0.72012448
1312470961.74741054,-0.66008526,-0.28288069,-0.72104734
1312470961.79644966,-0.65833992,-0.28355527,-0.71946311
1312470961.84845161,-0.66123438,-0.28377530,-0.71976304
1312470961.89528704,-0.65935791,-0.28582734,-0.72071445
1312470961.94845891,-0.65970606,-0.28264895,-0.71928006
1312470961.99629903,-0.65773278,-0.28265578,-0.72064435
1312470962.04443789,-0.65748626,-0.28214377,-0.72103715
1312470962.09543276,-0.65950972,-0.28505838,-0.72086334
1312470962.14442658,-0.65876895,-0.28456682,-0.71988350
1312470962.19647431,-0.65836674,-0.28441745,-0.72228050
1312470962.24744105,-0.65810388,-0.28390858,-0.72240353
1312470962.29530668,-0.65796000,-0.28355381,-0.71997881
1312470962.34834957,-0.65905005,-0.28277835,-0.71977878
1312470962.39529252,-0.65680879,-0.28291446,-0.72126102
